Simultaneous Nadir Overpasses (SNOs) Predictions

Prediction of SNOs between LANDSAT-8 and NOAA-19 Satellite Orbit:

Table of predicted SNOs for the next 14.0 days since TLE Epoch: 1/21/2023
Index Date (LANDSAT-8) Time (LANDSAT-8) Lat,Lon (LANDSAT-8) SZA (LANDSAT-8 ) Date (NOAA-19) Time (NOAA-19) Lat,Lon (NOAA-19) SZA (NOAA-19 ) Distance(km) Time Diff (sec)
1 01/22/2023 00:25:27 80.92,-149.52 102.14 01/22/2023 00:25:15 80.92,-149.62 102.13 1.76 12
2 01/24/2023 05:59:13 -80.91, -53.01 78.41 01/24/2023 05:58:00 -80.92, -52.91 78.42 1.99 73
3 01/24/2023 06:48:39 80.91, 114.66 101.60 01/24/2023 06:48:57 80.92, 114.74 101.61 1.46 18
4 01/26/2023 12:22:24 -80.92,-148.65 78.95 01/26/2023 12:21:42 -80.92,-148.83 78.98 3.13 42
5 01/26/2023 13:11:50 80.93, 19.00 101.05 01/26/2023 13:12:39 80.92, 19.02 101.06 1.20 49
6 01/28/2023 18:45:35 -80.92, 115.53 79.55 01/28/2023 18:45:23 -80.92, 115.54 79.55 0.64 12
7 01/31/2023 00:19:18 80.93,-147.82 99.86 01/31/2023 00:18:05 80.92,-147.71 99.84 2.25 73
8 01/31/2023 01:08:46 -80.91, 19.52 80.20 01/31/2023 01:09:05 -80.92, 19.45 80.19 1.79 19
9 02/02/2023 06:42:28 80.92, 116.33 99.21 02/02/2023 06:41:47 80.92, 116.33 99.19 0.64 41



Historial Predications of SNOs between LANDSAT-8 and NOAA-19
